Regional Weather Roundup
Issued by NWS Grand Forks, ND

Home | Current Version | Previous Version | Text Only | Print | Product List | Glossary On
Versions: 1 2 3 4 5 6 7 8 9 10 11 12 13 14 15 16 17 18 19 20 21 22 23 24 25 26 27 28 29 30 31 32 33 34 35 36 37 38 39 40 41 42 43 44 45 46 47 48 49 50
000
ASUS43 KFGF 300110
RWRFGF
PRAIRIE TO PINES  WEATHER ROUNDUP
NATIONAL WEATHER SERVICE EASTERN NORTH DAKOTA/GRAND FORKS ND
800 PM CDT FRI AUG 29 2014

 **SATELLITE DATA USED TO AUGMENT SKY COVER AT AUTOMATED STATIONS**
 *****  WEATHER ACROSS EASTERN NORTH DAKOTA  *****

CITY           SKY/WX    TMP DP  RH WIND       PRES   REMARKS
GRAND FORKS    CLOUDY    62  54  74 N15G24    29.85R
GRAND FRKS AFB CLOUDY    61  57  87 N13       29.88R
GRAND FRKS NWS   N/A     61 N/A N/A N10         N/A
DEVILS LAKE    CLEAR     63  52  67 N7        29.91R
FARGO          CLOUDY    67  62  84 N18       29.80R
WAHPETON ARPT  MOCLDY    72  63  73 CALM      29.78R
$$

 ***** WEATHER ACROSS CENTRAL AND WESTERN NORTH DAKOTA  *****

CITY           SKY/WX    TMP DP  RH WIND       PRES   REMARKS
BISMARCK       MOCLDY    68  56  65 N7        29.94S
MINOT          CLEAR     63  51  65 NE3       29.95S
JAMESTOWN      CLOUDY    62  55  77 N13       29.89R
MINOT AFB      CLEAR     66  51  57 E3        29.95R
GARRISON         N/A     65  53  65 NE5       29.96R
WILLISTON      CLEAR     70  48  45 E6        29.96S
DICKINSON      CLEAR     65  53  65 NE6       29.97S
HETTINGER      CLEAR     66  53  63 NE8       29.98S
$$

 *****  OTHER AIRPORT OBSERVATIONS IN OUR AREA  *****

CITY           SKY/WX    TMP DP  RH WIND       PRES   REMARKS
WALHALLA         N/A     63  59  88 N13       29.91R
GRAFTON AIRPOR MOCLDY    63  59  88 N15       29.88R
VALLEY CITY AR CLOUDY    61  61 100 N16G24    29.87R
CANDO          FAIR      59  54  82 N8        29.94S
CAVALIER APRT  FAIR      61  57  88 N7        29.90R
GWINNER        CLOUDY    70  64  83 NW17      29.83R
ROLLA          FAIR      57  54  88 N6        29.96S
 ***** THE ABOVE OBSERVATIONS ARE NON NWS ARE NOT QUALITY
       CONTROLLED AND MAY MIS-REPORT RAIN FOR SNOW...
$$

  *****  WEATHER ACROSS NORTHERN MINNESOTA  *****

CITY           SKY/WX    TMP DP  RH WIND       PRES   REMARKS
FLAG ISLAND    CLOUDY    63  55  77 N14       29.83S
WARROAD        CLOUDY    61  55  82 N8        29.86R
ROSEAU         CLOUDY    61  55  82 N7        29.86R
HALLOCK        MOCLDY    63  57  82 N12       29.87R
THF RVR FALLS  CLOUDY    61  57  88 N16G23    29.83R
BAUDETTE       CLOUDY    62  58  86 N14G24    29.81R
WASKISH        CLOUDY    66  63  88 N6        29.78R
CROOKSTON      CLOUDY    63  61  94 N14G23    29.83R
$$
  *****  WEATHER ACROSS CENTRAL AND WEST MINNESOTA  *****

CITY           SKY/WX    TMP DP  RH WIND       PRES   REMARKS
FOSSTON        CLOUDY    64  63  94 CALM      29.80R
BEMIDJI        CLOUDY    67  64  89 NW6       29.78S
PARK RAPIDS    MOCLDY    68  65  90 NW6       29.78R
ELBOW LAKE     CLOUDY    68  66  91 CALM      29.79R
WADENA         CLOUDY    68  64  88 W3        29.79R
DETROIT LAKES  PTCLDY    68  63  83 CALM      29.81R
MOORHEAD       MOCLDY    70  70 100 N15       29.80R
FERGUS FALLS   PTCLDY    70  64  83 CALM      29.78R
MORRIS MN      MOCLDY    72  66  83 N6        29.77S
STAPLES        CLOUDY    70  64  83 CALM      29.78R
$$
  *****  WEATHER ELSEWHERE ACROSS MINNESOTA  *****

CITY           SKY/WX    TMP DP  RH WIND       PRES   REMARKS
DULUTH         FOG       62  60  93 CALM      29.78S VSB 3/4
INTRNTL FALLS  LGT RAIN  66  63  90 NW10      29.78R FOG
ELY            CLOUDY    61  59  94 CALM      29.79S
CLOQUET        DRIZZLE   63  63 100 CALM      29.78S
WHEATON        MOCLDY    70  64  83 CALM      29.80R
BRAINERD       CLOUDY    67  65  93 CALM      29.78S
HIBBING        CLOUDY    66  63  90 CALM      29.79R
ALEXANDRIA     CLOUDY    69  65  86 NW6       29.80R
SAINT CLOUD    CLOUDY    72  69  90 CALM      29.76R
MINNEAPOLIS    LGT RAIN  70  70 100 N5        29.75R
$$

  *****  WEATHER ACROSS SOUTH DAKOTA  *****

CITY           SKY/WX    TMP DP  RH WIND       PRES   REMARKS
SIOUX FALLS    CLOUDY    68  66  93 CALM      29.81R
BROOKINGS      NOT AVBL
WATERTOWN      CLOUDY    72  64  76 N7        29.81R
HURON          CLOUDY    74  64  71 N8        29.81R
SISSETON         N/A     73  68  84 N5        29.78R
ABERDEEN       MOCLDY    66  61  84 N21       29.85R
MITCHELL       LGT RAIN  68  65  90 N7        29.82S
PIERRE         PTCLDY    71  59  65 N17       29.89R
MOBRIDGE       PTCLDY    68  59  73 N14       29.90R
RAPID CITY     PTCLDY    72  54  53 NE13      29.98S
$$

  *****  SOME WEATHER IN NEARBY STATES *****

CITY           SKY/WX    TMP DP  RH WIND       PRES   REMARKS
GLASGOW MT     CLEAR     70  51  51 S10       29.91F
GREAT FALLS MT SUNNY     79  39  23 S6        29.82F
CHEYENNE WY    CLOUDY    65  48  54 S12       30.15R
SCOTTSBLUFF NE PTCLDY    75  59  57 E6        30.01R
OMAHA NE       CLOUDY    72  68  87 S3        29.79R
DES MOINES IA  MOCLDY    72  69  90 S7        29.77S
DAVENPORT IA   LGT RAIN  79  69  71 S10       29.80F
CHICAGO IL     MOCLDY    80  68  66 S10       29.88S
EAU CLAIRE WI  TSTM      69  68  96 SE7       29.75F FOG
LA CROSSE WI   CLOUDY    72  68  87 SE7       29.76R
$$

  *****  SOME NATIONAL WEATHER *****

CITY           SKY/WX    TMP DP  RH WIND       PRES   REMARKS
LA GUARDIA NY  MOCLDY    70  54  56 SE12      30.22R
RALEIGH NC     PTCLDY    76  70  82 E3        30.15R
ATLANTA GA     PTCLDY    86  59  39 SE5       30.05R
NEW ORLEANS LA CLOUDY    79  75  87 SE8       29.94S
OKLAHOMA CITY  PTCLDY    79  65  62 S9        29.87S
ALBUQUERQUE NM PTCLDY    83  36  18 CALM      30.08F
SALT LAKE CITY PTSUNNY   85  38  18 S10       29.96F
LOS ANGELES CA MOSUNNY   73  60  63 W12       29.81F
BOISE ID       PTSUNNY   89  39  17 N8        29.80F
SEATTLE WA     PTSUNNY   70  54  56 S13       29.96F
$$

*** WEATHER ACROSS MANITOBA...SASKATCHEWAN AND ONTARIO ***
                ***ONTARIO***

CITY           SKY/WX    TMP DP  RH WIND       PRES   REMARKS
GERALDTON      LGT RAIN  57  57 100 SW2       29.81S FOG
THUNDER BAY    LGT RAIN  59  57  94 NE3       29.78S FOG
SIOUX LOOKOUT  LGT RAIN  57  55  94 VRB6      29.81R
TORONTO        MOCLDY    64  57  77 SE8       30.11S
BIG TROUT LK   CLOUDY    57  54  88 N7        29.80R
PICKLE LAKE    LGT RAIN  57  55  94 NE7       29.80R FOG
DRYDEN         CLOUDY    55  54  94 NE10G17   29.82R
KENORA         MOCLDY    59  57  94 N6        29.85R
$$
                *** MANITOBA***

CITY           SKY/WX    TMP DP  RH WIND       PRES   REMARKS
BRANDON        PTCLDY    59  52  77 E10       29.95R
DAUPHIN        CLEAR     59  52  77 E5        29.95S
ISLAND LAKE    PTCLDY    55  46  71 NW6       29.90R
PILOT MOUND      N/A     57  52  82 N8          N/A
THE PAS        PTCLDY    61  43  51 NW5       29.93S
THOMPSON       MOCLDY    55  45  67 NW9       29.91R
WINNIPEG       PTCLDY    61  52  72 N7        29.92R
LYNN LAKE      CLOUDY    54  41  62 MISG      29.91S
CHURCHILL      MOCLDY    54  41  62 NW12      29.75R
GILLAM         MOCLDY    55  41  58 W14       29.87R
$$
                ***SASKATCHEWAN***

CITY           SKY/WX    TMP DP  RH WIND       PRES   REMARKS
ESTEVAN        PTCLDY    68  46  45 NE2       29.97S
KINDERSLEY     MOCLDY    70  48  46 SE12G22   29.80F
LLOYDMINSTER   PTSUNNY   64  45  48 SE14      29.79F
PRINCE ALBERT  CLOUDY    59  46  63 SE5       29.91S
REGINA         PTCLDY    66  43  42 CALM      29.94F
YORKTON        CLEAR     61  46  59 NW3       29.96S
N. BATTLEFORD  CLEAR     63  48  59 SE9       29.86F
LA RONGE       MOCLDY    57  45  62 E5        29.90F
SASKATOON      MOCLDY    64  45  48 SE9       29.90F
SWIFT CURRENT  CLEAR     66  48  52 S12G20    29.86F
$$
NOTE: THESE ARE AUTOMATED STATIONS WITH LIMITED QUALITY CONTROL
      "FAIR" INDICATES FEW OR NO CLOUDS BELOW 12,000 FEET WITH NO
      SIGNIFICANT WEATHER AND/OR OBSTRUCTIONS TO VISIBILITY.
      SKY/WX - SKY CONDITION AND SIGNIFICANT WEATHER.
      TMP - AIR TEMPERATURE.    DP   - DEWPOINT TEMPERATURE.
      RH  - RELATIVE HUMIDITY.  PRES - PRESSURE.
      HX  - HEAT INDEX.         WCI  - WIND CHILL INDEX.
$


USA.gov is the U.S. government's official web portal to all federal, state and local government web resources and services.